Погода в Сент-Джорджесе

Гренада     12°03′13″N   61°45′05″W
темп.,
°C
ветер,
м/с
пор.,
м/с
влажн.,
%
обл.,
%
осадки,
мм/ч
давл.,
гПа
погр.,
м
24 января, пн
пн2423:00+25в57690 0.0 1013807
02:00+24в58740 0.1 1012793
05:00+25в577399 0.1 1012730
08:00+25в56692 0.1 10141056
11:00+27в56595 0.0 10151190
14:00+27в55585 0.0 10121091
17:00+26в67665 0.0 1011945
20:00+25всв68727 0.0 1013766
25 января, вт
вт2523:00+25в687495 0.0 1014860
02:00+25всв687095 0.0 10131005
05:00+24всв5772100 0.1 1013750
08:00+25в576859 0.2 10151019
11:00+27всв576448 0.0 10151207
14:00+27всв67645 0.0 10121184
17:00+26всв67734 0.1 1012966
20:00+24всв58828 0.2 1013642
26 января, ср
ср2623:00+24всв598213 0.3 1013691
02:00+24всв58792 0.4 1012638
05:00+24св598358 0.3 1012678
08:00+25всв698069 0.6 1014841
11:00+26всв787313 0.6 10141058
14:00+26всв687417 1.1 1012961
17:00+25всв68809 0.8 1012793
20:00+24всв698420 1.0 1013691
27 января, чт
чт2723:00+25св698054 0.3 1013820
02:00+24св698211 0.4 1012734
05:00+24св598131 0.3 1012727
08:00+25всв6872100 0.5 10141069
11:00+26всв6765100 0.0 10151249
14:00+27всв666411 0.0 10131107
17:00+26всв56691 0.0 1012931
20:00+24св46760 0.0 1013550
28 января, пт
пт2823:00+23св46780 0.0 1014451
02:00+23всв46770 0.0 1012515
05:00+23всв46792 0.0 1012503
08:00+25всв46721 0.1 1013688
11:00+27всв55640 0.0 10141183
14:00+27всв54631 0.0 10111149
17:00+26всв55711 0.0 1011904
20:00+24всв46740 0.0 1012537